Location: Middle Street
(51.7167°N, 0.0333°E)
Time: 22:15:34
(UTC+00:00)

NOSS 3-1 (C) - Pass Details

Date: 20 January 2021
Orbit: 723 x 1485 km, 63.3° (Epoch: 22 February)

Event Time Altitude Azimuth Distance (km) Brightness Sun altitude
Rises 19:21:03 0° 314° (NW) 3,864 7.3 -26.3°
Reaches altitude 10° 19:23:31 10° 313° (NW) 3,007 6.6 -26.7°
Maximum altitude 19:30:51 77° 230° (SW) 1,312 4.1 -27.8°
Enters shadow 19:34:42 36° 151° (SSE) 1,997 4.8 -28.4°
